Wind_Speed
10 10 10 9 8 9 8 7 6 6 6 6 6 5 5 6 6 6 6 5 5 5 5 5 5 5 6 7 7 8 8 9 11 11 12 12 13 13 12 12 12 11 11 11 11 10 9 9 8
10 9 9 8 8 8 7 7 7 7 7 7 6 6 7 7 7 8 8 8 7 8 7 8 8 8 8 9 9 9 10 11 11 12 12 13 13 13 13 13 13 12 12 12 11 10 10 9 8
9 9 9 8 8 8 7 7 7 8 7 8 8 8 9 9 9 10 10 10 10 10 10 10 10 10 11 11 12 13 13 13 13 13 14 14 14 14 13 13 13 13 12 12 11 10 9 9 8
8 8 8 8 8 8 8 7 8 9 9 10 10 11 11 11 12 12 12 12 13 13 13 13 13 13 13 13 14 15 15 15 15 15 15 15 15 15 15 14 14 13 13 12 11 10 10 9 8
7 7 8 8 8 8 9 9 10 11 12 13 13 13 13 14 14 14 14 14 15 15 16 17 16 16 17 16 16 17 18 18 18 18 17 17 17 17 16 16 15 14 13 13 12 11 10 9 8
6 7 7 7 8 9 10 11 12 13 14 15 15 15 15 16 16 16 16 17 17 18 18 19 20 20 20 20 20 20 21 21 20 20 20 19 20 19 19 18 17 16 14 14 13 12 11 10 9
6 7 7 8 8 10 11 12 13 15 15 16 16 17 18 19 19 20 20 20 20 21 21 22 22 23 23 23 24 24 24 23 23 23 23 22 22 22 21 20 19 18 17 16 15 14 13 11 10
7 8 8 9 10 11 13 14 15 16 17 17 18 19 20 21 22 22 23 23 23 24 25 25 26 26 26 26 27 26 27 27 27 26 26 25 25 23 23 22 21 20 19 18 17 16 15 13 12
8 9 10 11 11 12 14 16 17 17 18 19 20 21 22 22 23 23 24 24 24 25 26 27 28 29 31 31 30 30 31 31 30 30 30 28 28 27 26 25 23 22 21 20 20 19 18 16 14
9 10 11 12 13 14 16 17 18 18 19 20 21 22 22 22 23 23 24 25 25 26 27 28 29 30 31 33 34 34 34 34 34 33 33 33 31 30 29 28 27 25 24 23 22 22 21 19 17
10 11 12 13 14 15 17 18 19 20 20 21 22 22 22 22 23 23 24 25 26 27 28 28 29 29 30 31 33 35 36 37 37 37 37 37 35 33 33 32 31 29 28 26 25 24 23 22 20
11 11 12 14 15 16 17 18 19 20 21 21 21 21 22 22 23 24 25 26 27 27 27 27 28 28 29 30 32 33 35 36 37 38 39 40 39 37 35 35 34 32 31 30 29 27 25 25 23
11 12 13 14 15 16 17 18 19 20 20 21 21 21 22 23 24 24 25 26 26 27 27 27 27 28 28 29 30 32 34 36 37 38 39 40 41 41 39 37 36 35 34 32 32 29 28 27 26
11 12 13 14 15 16 17 18 19 19 20 20 21 21 22 23 24 24 25 25 26 26 27 27 27 27 27 28 29 30 32 34 36 38 39 41 41 41 42 41 39 37 36 35 34 33 31 29 28
12 12 13 14 15 16 16 17 18 18 19 19 20 21 22 23 24 25 25 25 26 26 27 27 27 26 26 27 27 28 30 32 33 36 38 39 41 41 41 42 42 40 38 37 36 35 34 32 30
12 12 13 14 15 15 16 16 17 18 18 19 20 21 23 24 24 24 25 26 26 27 26 26 25 25 25 25 25 27 28 29 30 32 34 37 39 40 42 42 42 42 40 39 38 37 36 35 32
11 12 13 14 14 14 14 15 16 17 18 18 20 21 22 24 24 24 25 26 27 27 26 25 24 24 24 25 25 26 26 27 28 29 31 33 36 38 40 41 42 42 41 40 39 38 38 37 35
11 12 12 13 12 13 13 14 15 16 17 18 19 20 22 23 24 25 26 26 27 27 26 25 24 24 24 24 25 24 24 25 25 26 28 30 32 35 37 39 41 42 42 41 41 39 39 39 38
12 11 11 11 11 11 12 13 14 15 15 17 18 19 21 23 24 25 26 26 27 27 26 25 25 25 25 24 24 23 23 23 23 24 25 26 29 31 34 36 38 40 41 41 41 41 40 39 39
11 11 10 10 10 10 11 12 13 13 14 15 17 19 21 23 24 25 26 26 27 27 26 26 25 25 25 24 23 23 22 22 22 22 22 24 26 28 30 33 36 37 39 41 42 43 42 41 39
11 10 9 9 9 9 10 10 11 12 13 14 17 19 21 22 24 25 26 26 27 27 26 26 26 26 25 25 24 23 21 21 20 19 20 21 23 25 28 30 33 35 37 39 42 43 43 42 41
10 9 8 8 8 9 9 9 9 10 12 14 16 18 21 22 24 25 25 26 27 27 27 26 26 26 26 25 24 23 22 20 19 18 18 18 19 21 24 28 31 34 35 37 39 41 42 43 42
9 8 7 7 7 7 7 7 8 10 12 14 16 18 20 22 24 25 25 26 27 27 27 27 27 27 27 26 25 24 22 21 19 18 17 16 16 18 21 24 27 31 33 35 37 40 41 42 42
9 8 6 5 6 5 5 6 7 9 11 13 16 18 20 22 23 24 25 26 27 28 27 27 28 28 28 28 27 25 24 23 21 18 16 14 13 14 17 20 24 27 30 32 35 38 40 41 42
8 6 5 4 4 4 4 5 7 9 11 13 15 18 20 22 23 24 25 26 27 28 28 28 29 29 29 28 28 27 26 24 22 19 16 13 10 10 12 16 20 24 28 31 33 35 37 39 41
8 6 4 3 2 2 3 5 6 8 10 12 15 17 19 21 23 24 25 26 27 28 28 28 29 30 29 29 28 28 27 25 23 21 18 13 9 8 9 12 15 20 24 28 31 33 34 37 39
8 6 4 3 2 1 3 5 6 8 10 12 14 16 18 21 23 24 25 26 27 28 28 29 29 30 30 30 29 29 27 26 24 22 20 15 11 8 7 9 12 16 20 24 28 30 32 35 37
8 6 5 3 2 1 2 4 6 8 10 12 14 16 18 20 22 23 25 26 27 28 28 29 29 30 30 31 30 30 28 26 25 23 21 18 14 10 7 7 9 12 16 20 24 28 30 32 35
8 7 5 4 2 1 2 4 5 7 9 11 13 15 17 19 21 23 24 25 26 27 28 29 29 30 30 31 31 31 30 28 26 25 22 20 17 13 10 7 7 9 13 17 20 24 27 30 32
9 7 6 5 3 2 2 3 5 7 9 11 13 15 17 18 20 22 23 24 25 26 27 28 29 30 30 31 31 31 31 29 27 26 24 22 19 16 13 9 6 7 10 14 17 20 24 27 29
Wind_Direction
47 49 47 47 48 42 37 30 29 28 26 22 16 11 8 357 349 338 330 319 314 303 292 278 272 270 261 249 244 241 238 236 234 234 234 233 234 233 233 232 233 236 237 237 241 246 249 252 257
46 45 43 40 42 34 26 19 16 12 9 4 358 351 346 339 334 329 325 318 310 301 291 283 272 267 266 256 245 242 241 240 239 237 236 236 236 235 235 235 235 237 238 239 240 241 244 246 248
44 41 38 36 36 25 13 7 3 357 353 349 342 336 332 328 324 320 316 309 306 302 292 285 273 264 263 260 247 245 245 241 240 239 238 237 236 236 235 235 236 237 236 236 237 237 239 241 241
35 35 32 31 26 14 8 358 348 344 341 339 334 329 324 321 318 313 308 304 303 298 291 285 278 268 265 261 256 253 249 246 245 242 241 239 237 236 236 236 236 235 234 233 233 234 236 236 236
24 22 19 17 8 360 355 348 340 338 336 333 329 324 320 316 312 308 304 300 298 296 292 285 277 271 267 266 263 259 255 253 253 248 245 242 239 236 236 236 236 235 234 233 232 231 230 229 229
7 6 5 354 349 344 343 341 337 333 331 330 326 322 317 315 310 306 301 296 291 289 287 285 279 274 271 265 262 261 262 259 255 253 251 245 240 238 237 235 235 233 232 232 231 229 226 225 224
347 351 347 342 338 338 337 337 335 333 330 326 323 319 316 312 308 303 298 295 292 288 285 282 280 275 271 268 264 261 261 260 257 255 252 249 245 242 239 236 235 233 231 230 229 228 226 224 224
331 335 334 333 332 331 332 332 331 330 327 324 321 319 315 311 307 303 299 294 291 288 284 280 277 274 271 270 265 263 261 260 258 255 255 252 248 246 243 240 238 235 232 231 231 229 227 225 224
323 326 326 324 324 324 327 329 328 327 325 323 320 318 315 312 310 306 303 298 294 291 287 282 278 276 274 272 269 266 262 261 260 257 256 255 252 246 244 242 241 237 234 233 232 230 228 225 224
318 321 321 321 322 324 327 327 328 327 326 324 321 319 317 315 312 309 307 304 300 296 292 288 283 279 276 273 271 269 266 263 262 260 258 256 253 249 246 245 245 240 237 235 233 231 229 226 224
310 313 316 320 323 324 327 327 329 329 327 325 325 323 322 320 317 314 312 309 304 300 296 291 287 284 281 276 273 271 268 266 263 261 258 256 254 252 249 246 246 244 241 238 235 232 230 228 225
304 309 315 318 321 325 326 327 329 329 328 329 329 328 327 325 322 319 316 313 310 307 303 299 294 290 285 282 277 273 271 268 265 262 260 256 254 252 251 248 247 244 241 238 236 234 232 228 226
301 307 313 317 321 324 325 327 329 330 331 331 331 331 331 330 328 325 323 320 317 313 309 305 301 296 292 287 282 277 273 269 266 263 259 256 254 252 250 249 247 244 242 238 235 234 233 230 228
299 305 310 315 319 322 325 328 329 332 333 334 335 335 334 333 332 330 327 324 322 319 315 310 306 302 297 292 288 283 278 273 268 264 261 257 254 251 249 248 246 246 244 239 235 234 232 231 229
297 303 310 315 318 322 325 328 330 333 335 336 337 337 338 337 336 333 331 329 327 324 320 316 312 307 303 298 292 288 284 278 272 266 262 258 254 251 249 247 245 243 242 240 237 234 232 230 229
295 303 309 314 317 321 325 327 331 334 337 339 340 340 341 340 339 337 335 334 331 329 326 323 319 314 309 305 300 295 289 284 278 271 263 259 255 251 249 247 244 242 241 239 238 235 232 230 229
293 300 306 311 317 321 324 326 330 335 338 341 342 343 343 343 342 341 340 338 337 335 332 329 326 322 317 311 307 302 296 289 282 275 268 261 256 252 248 246 244 242 239 237 237 235 232 231 229
285 295 303 309 315 320 323 327 333 337 341 344 345 346 347 346 346 345 344 344 343 341 339 336 333 329 325 319 314 308 301 295 288 280 271 263 258 253 249 246 243 241 239 236 235 234 232 231 231
280 290 298 305 314 319 325 330 335 340 344 347 349 349 349 349 349 349 349 348 347 346 345 343 339 336 332 328 322 315 308 301 295 287 276 267 260 255 250 246 243 241 238 235 233 232 231 231 231
276 286 295 304 312 320 326 333 340 345 349 352 353 353 353 353 353 353 352 351 351 350 350 348 346 343 340 336 332 325 316 309 301 292 281 271 262 255 249 245 241 239 237 235 233 232 231 230 230
272 283 292 302 312 321 328 337 346 352 355 357 357 358 358 358 358 357 357 356 356 355 354 352 351 349 347 344 339 333 327 319 310 301 290 278 265 256 249 243 240 238 237 235 233 232 231 231 231
269 280 289 301 313 323 331 342 352 357 360 2 2 1 1 1 1 0 0 0 0 359 358 357 355 354 352 350 347 343 338 331 322 312 303 288 271 259 251 244 240 238 236 234 232 231 230 230 230
265 275 286 300 313 324 336 348 357 359 3 4 4 3 3 3 2 3 3 3 3 2 1 0 359 358 357 356 353 349 345 340 332 323 314 301 279 263 253 246 241 238 235 233 231 229 229 228 228
259 271 282 298 314 330 340 353 358 0 3 5 6 6 6 5 5 5 5 5 4 4 4 3 3 2 1 359 357 354 352 348 344 337 327 314 293 270 256 247 241 237 233 232 231 229 228 228 227
253 263 276 298 318 327 339 353 358 1 3 4 6 7 8 8 8 7 6 7 7 6 6 6 6 5 4 3 2 360 358 355 353 350 341 329 309 283 263 251 243 238 233 230 229 228 228 227 226
242 247 259 276 296 316 338 353 357 0 2 4 6 7 8 8 9 9 9 9 9 8 8 8 8 7 7 6 5 5 4 2 1 358 354 346 330 301 271 255 245 238 233 229 227 227 228 227 227
232 238 243 255 259 309 341 353 357 1 3 4 5 6 8 9 9 9 9 10 10 10 9 9 9 8 9 9 8 8 8 8 7 5 2 360 350 328 294 265 251 240 231 228 226 225 227 227 227
228 227 226 228 229 268 332 348 354 1 3 3 4 6 7 6 7 7 8 9 10 10 11 11 10 11 12 13 12 12 12 12 11 10 8 6 360 348 321 287 261 243 233 228 225 224 226 227 227
221 220 219 216 218 241 303 338 352 359 1 2 3 4 5 6 6 7 7 8 10 11 12 13 13 13 15 15 16 16 15 14 14 14 13 11 7 1 346 317 279 253 238 231 226 224 226 227 227
218 216 214 213 215 236 291 334 348 356 358 0 2 3 4 5 5 6 7 8 10 12 13 14 14 15 15 16 16 17 17 17 16 15 14 13 12 9 2 346 311 271 245 233 228 227 226 226 226
Height
5932 5931 5931 5931 5930 5930 5928 5927 5926 5924 5923 5921 5920 5919 5918 5917 5916 5917 5913 5911 5910 5909 5908 5907 5906 5905 5905 5904 5904 5904 5903 5903 5903 5903 5902 5902 5903 5903 5902 5902 5902 5903 5903 5903 5903 5903 5903 5902 5902
5933 5932 5932 5932 5931 5930 5929 5927 5926 5925 5923 5921 5920 5919 5917 5916 5915 5913 5911 5910 5909 5908 5906 5905 5904 5903 5903 5902 5902 5902 5901 5901 5901 5900 5900 5900 5900 5901 5901 5901 5901 5901 5901 5901 5901 5901 5901 5901 5901
5934 5933 5934 5932 5931 5931 5929 5928 5926 5924 5923 5921 5920 5918 5917 5915 5913 5911 5910 5908 5907 5905 5904 5903 5902 5901 5900 5899 5899 5899 5898 5898 5898 5898 5898 5898 5898 5898 5898 5898 5899 5899 5899 5899 5899 5899 5899 5899 5899
5935 5934 5934 5933 5931 5930 5929 5928 5926 5924 5923 5921 5919 5917 5915 5913 5912 5910 5908 5906 5905 5903 5901 5900 5899 5898 5897 5896 5896 5896 5895 5895 5895 5895 5895 5895 5895 5895 5896 5896 5896 5897 5897 5897 5897 5897 5897 5897 5898
5935 5935 5934 5933 5931 5930 5929 5927 5925 5923 5922 5920 5918 5916 5913 5911 5909 5907 5905 5904 5902 5900 5898 5897 5895 5895 5894 5893 5892 5892 5891 5891 5891 5891 5891 5891 5892 5892 5892 5893 5894 5894 5895 5895 5895 5895 5896 5896 5896
5936 5935 5934 5932 5931 5930 5928 5926 5924 5922 5920 5918 5916 5913 5911 5909 5907 5905 5902 5901 5899 5897 5895 5893 5891 5890 5889 5888 5887 5887 5887 5886 5887 5887 5887 5887 5887 5888 5888 5889 5890 5891 5892 5892 5893 5893 5894 5894 5894
5936 5934 5933 5932 5931 5929 5927 5925 5923 5921 5918 5916 5914 5911 5908 5906 5904 5901 5899 5897 5895 5893 5891 5889 5887 5885 5884 5883 5882 5882 5881 5881 5881 5881 5882 5882 5882 5883 5884 5885 5886 5887 5888 5889 5890 5891 5891 5892 5893
5934 5934 5932 5931 5929 5928 5926 5923 5921 5919 5916 5914 5911 5909 5906 5903 5900 5897 5895 5892 5890 5888 5886 5884 5882 5880 5879 5878 5877 5876 5876 5875 5875 5876 5876 5876 5877 5878 5879 5880 5881 5882 5884 5885 5886 5888 5889 5890 5891
5933 5934 5931 5930 5928 5926 5924 5921 5919 5917 5914 5911 5908 5906 5902 5899 5896 5893 5890 5887 5885 5883 5880 5878 5876 5874 5873 5872 5870 5869 5869 5869 5869 5869 5870 5870 5871 5872 5873 5875 5876 5877 5879 5881 5882 5884 5885 5887 5888
5932 5932 5930 5928 5926 5924 5921 5919 5917 5914 5911 5908 5905 5902 5899 5895 5892 5889 5886 5883 5880 5877 5874 5872 5870 5868 5866 5864 5863 5862 5862 5862 5862 5862 5863 5864 5864 5865 5867 5869 5870 5872 5874 5876 5878 5879 5881 5883 5885
5930 5929 5928 5926 5924 5922 5919 5917 5914 5911 5909 5906 5902 5899 5895 5892 5888 5885 5881 5878 5874 5871 5868 5865 5863 5860 5859 5857 5856 5855 5854 5854 5854 5854 5855 5856 5857 5858 5860 5862 5864 5866 5868 5870 5872 5874 5877 5879 5881
5928 5927 5925 5924 5922 5919 5917 5914 5912 5909 5906 5902 5899 5895 5892 5888 5884 5881 5877 5873 5869 5865 5862 5859 5856 5853 5851 5849 5848 5847 5846 5845 5845 5846 5846 5847 5849 5851 5852 5854 5857 5859 5862 5864 5866 5869 5871 5874 5876
5926 5925 5923 5922 5919 5917 5915 5912 5910 5907 5903 5900 5896 5893 5889 5885 5881 5877 5873 5868 5864 5860 5856 5852 5849 5846 5844 5842 5840 5838 5837 5836 5836 5836 5836 5838 5840 5842 5844 5846 5849 5851 5854 5857 5860 5862 5866 5868 5871
5924 5923 5921 5920 5918 5915 5913 5910 5907 5904 5901 5897 5894 5890 5886 5882 5878 5873 5869 5864 5859 5855 5851 5847 5843 5840 5837 5834 5832 5830 5828 5827 5826 5826 5826 5828 5829 5832 5835 5838 5841 5843 5846 5849 5853 5856 5859 5863 5866
5922 5921 5920 5918 5916 5913 5911 5909 5905 5902 5899 5895 5891 5887 5883 5879 5874 5870 5865 5860 5855 5850 5846 5841 5837 5833 5830 5827 5824 5822 5820 5818 5817 5816 5816 5817 5819 5822 5824 5828 5831 5834 5838 5841 5845 5849 5853 5856 5860
5920 5919 5918 5916 5914 5911 5911 5907 5904 5900 5897 5893 5889 5885 5881 5876 5872 5867 5862 5857 5852 5846 5841 5836 5832 5827 5824 5820 5817 5814 5812 5809 5807 5806 5806 5807 5809 5811 5814 5817 5821 5825 5829 5833 5837 5841 5845 5849 5853
5918 5917 5916 5914 5912 5909 5908 5905 5902 5898 5895 5891 5887 5883 5879 5874 5869 5864 5859 5854 5848 5843 5837 5832 5827 5823 5818 5815 5811 5807 5804 5801 5799 5797 5797 5797 5799 5801 5804 5807 5811 5815 5820 5824 5829 5833 5837 5842 5846
5916 5915 5914 5912 5910 5908 5906 5903 5900 5897 5893 5889 5885 5881 5877 5872 5867 5862 5857 5851 5845 5840 5834 5828 5823 5818 5814 5809 5805 5801 5797 5794 5791 5789 5788 5788 5789 5791 5794 5797 5801 5805 5810 5815 5820 5825 5829 5834 5838
5913 5913 5911 5910 5908 5906 5904 5901 5898 5895 5891 5888 5884 5880 5875 5871 5866 5860 5854 5849 5843 5837 5831 5826 5820 5815 5809 5804 5800 5795 5791 5787 5784 5782 5781 5780 5781 5782 5784 5788 5791 5795 5800 5805 5810 5816 5821 5826 5830
5911 5910 5909 5908 5906 5904 5902 5899 5896 5893 5890 5887 5883 5879 5874 5870 5864 5859 5853 5847 5841 5835 5829 5823 5818 5812 5806 5800 5795 5790 5786 5782 5779 5776 5774 5772 5772 5773 5775 5778 5782 5786 5791 5796 5801 5807 5813 5818 5823
5908 5907 5907 5905 5904 5902 5900 5898 5895 5892 5889 5886 5882 5878 5874 5869 5863 5858 5852 5846 5840 5833 5827 5822 5816 5809 5803 5797 5792 5786 5782 5777 5773 5770 5768 5766 5765 5766 5767 5770 5773 5777 5782 5787 5792 5798 5804 5810 5815
5905 5905 5904 5903 5902 5901 5899 5897 5894 5891 5888 5885 5881 5877 5873 5868 5863 5857 5851 5845 5839 5833 5826 5820 5814 5808 5802 5795 5789 5783 5778 5773 5769 5765 5762 5760 5758 5758 5760 5762 5765 5768 5773 5778 5783 5789 5795 5801 5807
5902 5902 5902 5901 5900 5899 5897 5896 5894 5891 5888 5884 5881 5877 5872 5867 5862 5856 5850 5844 5838 5832 5826 5819 5813 5807 5800 5794 5787 5781 5775 5770 5765 5761 5757 5754 5753 5752 5753 5755 5757 5761 5765 5769 5775 5780 5786 5792 5798
5900 5900 5900 5899 5899 5898 5896 5895 5893 5890 5887 5884 5880 5876 5871 5867 5861 5856 5850 5844 5838 5832 5825 5819 5812 5806 5799 5793 5786 5780 5774 5768 5762 5757 5753 5750 5748 5747 5747 5749 5751 5754 5758 5762 5767 5772 5778 5784 5790
5898 5899 5899 5898 5898 5897 5895 5893 5892 5889 5886 5883 5880 5876 5871 5866 5861 5856 5850 5844 5838 5832 5825 5819 5812 5806 5799 5792 5785 5779 5772 5766 5761 5755 5751 5747 5745 5743 5743 5744 5746 5748 5751 5755 5760 5765 5770 5776 5782
5896 5897 5898 5897 5896 5895 5894 5892 5891 5888 5885 5882 5879 5875 5871 5866 5861 5856 5850 5844 5838 5832 5826 5819 5813 5806 5799 5792 5785 5779 5772 5766 5760 5755 5750 5746 5743 5741 5741 5741 5741 5743 5746 5749 5754 5758 5763 5769 5774
5894 5894 5895 5895 5894 5894 5893 5891 5890 5887 5884 5881 5878 5875 5871 5866 5861 5856 5851 5845 5839 5833 5826 5820 5813 5806 5799 5792 5786 5779 5772 5766 5760 5755 5750 5746 5742 5740 5739 5738 5738 5739 5741 5744 5748 5752 5757 5762 5767
5892 5892 5893 5893 5893 5892 5892 5890 5889 5886 5884 5881 5878 5874 5870 5866 5861 5856 5851 5846 5840 5833 5827 5821 5814 5807 5800 5794 5787 5780 5773 5767 5761 5755 5750 5746 5742 5739 5737 5736 5735 5736 5737 5740 5743 5746 5751 5755 5760
5890 5890 5890 5891 5891 5891 5890 5891 5888 5885 5883 5880 5877 5874 5870 5866 5861 5856 5851 5846 5840 5834 5828 5822 5815 5809 5802 5795 5788 5781 5775 5768 5762 5757 5751 5746 5742 5739 5736 5734 5733 5733 5734 5735 5738 5741 5745 5749 5753
5887 5888 5889 5890 5890 5889 5889 5891 5886 5884 5882 5879 5876 5873 5869 5865 5861 5856 5852 5846 5841 5835 5829 5823 5817 5810 5804 5797 5790 5783 5777 5770 5764 5758 5753 5748 5743 5739 5736 5733 5731 5730 5730 5732 5734 5736 5739 5743 5747